Regional Weather Roundup
Issued by NWS

Home | Current Version | Previous Version | Graphics & Text | Print | Product List | Glossary On
Versions: 1 2 3 4 5 6 7 8 9 10 11 12 13 14 15 16 17 18 19 20 21 22 23 24 25 26 27 28 29 30 31 32 33 34 35 36 37 38 39 40 41 42 43 44 45 46 47 48 49 50
000
ASUS43 KFSD 241810
RWRSD

WEATHER ROUNDUP FOR SOUTH DAKOTA
NATIONAL WEATHER SERVICE SIOUX FALLS SD
100 PM CDT MON APR 24 2017

NOTE: "FAIR" INDICATES FEW OR NO CLOUDS BELOW 12,000 FEET WITH NO
SIGNIFICANT WEATHER AND/OR OBSTRUCTIONS TO VISIBILITY.


SDZ001>005-009-010-012>017-241900-
NORTHWEST AND NORTH CENTRAL SOUTH DAKOTA

CITY           SKY/WX    TMP DP  RH WIND       PRES   REMARKS
BUFFALO          N/A     49  41  74 NW15      29.56S
FAITH            N/A     45  38  76 N14G21    29.60F
MOBRIDGE       CLOUDY    43  34  70 N20       29.57S
$$

SDZ012>016-024>037-041>051-057-063-072>074-241900-
SOUTHWEST AND SOUTH CENTRAL SOUTH DAKOTA

CITY           SKY/WX    TMP DP  RH WIND       PRES   REMARKS
RAPID CTY ARPT MOSUNNY   57  43  59 N21G26    29.61F
PIERRE         CLOUDY    41  35  79 NW20      29.59R
CUSTER         SUNNY     55  24  30 NW10G22   29.62S
ELLSWORTH AFB  MOSUNNY   55  43  65 N23       29.61
PHILIP         CLOUDY    50  39  66 NW17G23   29.62S
PINE RIDGE     MOSUNNY   56  43  61 MISG      29.63F
SPEARFISH      PTSUNNY   50  41  71 W12G23    29.64S
WINNER         CLOUDY    47  38  71 NW20      29.58F
$$

SDZ004>011-016>023-039-040-241900-
NORTHEAST SOUTH DAKOTA

CITY           SKY/WX    TMP DP  RH WIND       PRES   REMARKS
ABERDEEN       CLOUDY    50  38  63 N14       29.52S
WATERTOWN      NOT AVBL
BROOKINGS      CLOUDY    58  39  49 S18G29    29.55S
SISSETON         N/A     62  40  44 SW14      29.49F
$$

SDZ017-020-022-023-036>040-048>070-241900-
SOUTHEAST SOUTH DAKOTA

CITY           SKY/WX    TMP DP  RH WIND       PRES   REMARKS
SIOUX FALLS    LGT RAIN  55  45  68 W10G20    29.59R
HURON          CLOUDY    61  41  47 W16G24    29.50R
CHAMBERLAIN    CLOUDY    48  40  75 W18       29.58S
MITCHELL       PTSUNNY   65  41  41 S14       29.52F
YANKTON        CLOUDY    55  45  67 W7        29.57S
$$

ABBREVIATIONS USED IN REMARKS
   TC - TEMPERATURE IN CELSIUS
  WCI - WIND CHILL INDEX
   HX - HEAT INDEX
  VSB - VISIBILITY





USA.gov is the U.S. government's official web portal to all federal, state and local government web resources and services.